Location: Unspecified
(50.7693°N, 0.0000°E)
Time: 10:17:28
(UTC+00:00)

Transit 4A - Pass Details

Date: 03 July 2019
Orbit: 862 x 982 km, 66.8° (Epoch: 19 July)

Event Time Altitude Azimuth Distance (km) Brightness Sun altitude
Rises 05:24:23 0° 195° (SSW) 3,626 10.6 11.6°
Reaches altitude 10° 05:26:58 10° 190° (S) 2,697 10.1 12.0°
Maximum altitude 05:33:02 50° 117° (ESE) 1,224 9.2 12.9°
Drops below altitude 10° 05:39:13 10° 44° (NE) 2,746 11.7 13.8°
Sets 05:41:52 0° 40° (NE) 3,697 12.1 14.2°
